WetterOnline ( https://www.wetteronline.de )

Wetter aktuell Schwerin

Aktuelles Wetter: Schwerin (68m)

6-stündlich | Neueste Meldungen
Ortszeit Temperatur Wetter
Sa, 04.02. 1:00 3.1° C bedeckt
Fr, 03.02. 19:00 5.7° C Regen
Fr, 03.02. 13:00 6.2° C Regen
Fr, 03.02. 7:00 6.7° C leichter Regen
Fr, 03.02. 1:00 2.6° C Regen
Do, 02.02. 19:00 2.1° C bedeckt
Do, 02.02. 13:00 5.1° C wolkig
Do, 02.02. 7:00 4.8° C bedeckt
Ortszeit Temperatur Wetter
Sa, 04.02. 6:00 0.8° C wolkig
Sa, 04.02. 5:40 0.7° C leicht bewölkt
Sa, 04.02. 5:30 1.1° C wolkenlos
Sa, 04.02. 5:20 1.1° C wolkenlos
Sa, 04.02. 5:10 1.5° C fast wolkenlos
Sa, 04.02. 5:00 2.2° C Sprühregen
Sa, 04.02. 4:50 2.2° C Sprühregen
Sa, 04.02. 4:30 2.3° C bewölkt
Sa, 04.02. 4:00 2.4° C bedeckt
Sa, 04.02. 3:30 2.6° C bedeckt
Sa, 04.02. 3:00 2.7° C bedeckt
Ortszeit Relative Feuchte Sichtweite
Sa, 04.02. 1:00 80% 55 km
Fr, 03.02. 19:00 89% 9 km
Fr, 03.02. 13:00 78% 24 km
Fr, 03.02. 7:00 97% 2.1 km
Fr, 03.02. 1:00 94% 13 km
Do, 02.02. 19:00 92% 29 km
Do, 02.02. 13:00 78% 35 km
Do, 02.02. 7:00 82% 30 km
Ortszeit Relative Feuchte Sichtweite
Sa, 04.02. 6:00 90% >70 km
Sa, 04.02. 5:40 90% -
Sa, 04.02. 5:30 88% >70 km
Sa, 04.02. 5:20 88% -
Sa, 04.02. 5:10 87% -
Sa, 04.02. 5:00 83% 40 km
Sa, 04.02. 4:50 83% -
Sa, 04.02. 4:30 82% 65 km
Sa, 04.02. 4:00 82% >70 km
Sa, 04.02. 3:30 79% >70 km
Sa, 04.02. 3:00 80% 60 km
Ortszeit Niederschlagsmenge Niederschlagsart
Sa, 04.02. 1:00 0.7 l/m2 in 6 Std. Regen
Fr, 03.02. 19:00 4 l/m2 in 12 Std. Regen
Fr, 03.02. 13:00 4 l/m2 in 6 Std. Regen
Fr, 03.02. 7:00 6 l/m2 in 12 Std. Regen
Fr, 03.02. 1:00 3 l/m2 in 6 Std. Regen
Do, 02.02. 19:00 0.9 l/m2 in 12 Std. -
Do, 02.02. 13:00 0.9 l/m2 in 6 Std. Regen
Do, 02.02. 7:00 0.5 l/m2 in 12 Std. Sprühregen
Ortszeit Niederschlagsmenge Niederschlagsart
Sa, 04.02. 6:00 <0.05 l/m2 in 1 Std. Sprühregen
Sa, 04.02. 5:40 keine Meldung -
Sa, 04.02. 5:30 <0.05 l/m2 in 30 Min Schnee
Sa, 04.02. 5:20 keine Meldung -
Sa, 04.02. 5:10 keine Meldung -
Sa, 04.02. 5:00 <0.05 l/m2 in 1 Std. Schnee, Regen
Sa, 04.02. 4:50 keine Meldung -
Sa, 04.02. 4:30 0.0 l/m2 in 30 Min -
Sa, 04.02. 4:00 0.0 l/m2 in 1 Std. Regen
Sa, 04.02. 3:30 0.0 l/m2 in 30 Min -
Sa, 04.02. 3:00 0.0 l/m2 in 1 Std. -
Ortszeit Stärke Spitze Richtung
km/h Bft. km/h Grad Sektor
Sa, 04.02. 1:00 19 3 56 10° N
Fr, 03.02. 19:00 28 4 70 290° W
Fr, 03.02. 13:00 37 5 85 300° NW
Fr, 03.02. 7:00 29 5 50 250° W
Fr, 03.02. 1:00 20 4 33 210° SW
Do, 02.02. 19:00 4 1 32 150° SO
Do, 02.02. 13:00 17 3 46 340° N
Do, 02.02. 7:00 18 3 65 290° W
Ortszeit Stärke Spitze Richtung
km/h Bft. km/h Grad Sektor
Sa, 04.02. 6:00 7 2 14 360° N
Sa, 04.02. 5:40 7 2 - 10° N
Sa, 04.02. 5:30 7 2 14 40° NO
Sa, 04.02. 5:20 7 2 - 40° NO
Sa, 04.02. 5:10 7 2 - 50° NO
Sa, 04.02. 5:00 9 2 19 20° N
Sa, 04.02. 4:50 9 2 - 20° N
Sa, 04.02. 4:30 11 2 18 20° N
Sa, 04.02. 4:00 11 2 18 10° N
Sa, 04.02. 3:30 11 2 19 20° N
Sa, 04.02. 3:00 14 3 25 20° N
Ortszeit Untergrenze Bedeckung Gattung
total tief tief mittel hoch
Sa, 04.02. 1:00 510 m 8/8 8/8 - - -
Fr, 03.02. 19:00 660 m 7/8 7/8 - - -
Fr, 03.02. 13:00 840 m 8/8 8/8 - - -
Fr, 03.02. 7:00 150 m 7/8 7/8 - - -
Fr, 03.02. 1:00 270 m 7/8 7/8 - - -
Do, 02.02. 19:00 4200 m 8/8 8/8 - - -
Do, 02.02. 13:00 570 m 7/8 4/8 - - -
Do, 02.02. 7:00 600 m 8/8 8/8 - - -
Ortszeit Bedeckungsgrad in Achtel und Wolkenuntergrenze
Sa, 04.02. 6:00 5(810m)
Sa, 04.02. 5:40 3
Sa, 04.02. 5:30 keine Wolken
Sa, 04.02. 5:20 keine Wolken
Sa, 04.02. 5:10 1
Sa, 04.02. 5:00 2(540m) 7(900m)
Sa, 04.02. 4:50 2(540m) 7(900m)
Sa, 04.02. 4:30 7(960m)
Sa, 04.02. 4:00 8(870m)
Sa, 04.02. 3:30 8(690m)
Sa, 04.02. 3:00 8(690m)
Ortszeit Luftdruck NN (hPa) Tendenz (hPa in 3 Std.)
Sa, 04.02. 1:00 1027 + 5,8
Fr, 03.02. 19:00 1015 + 2,2
Fr, 03.02. 13:00 1011 + 1,9
Fr, 03.02. 7:00 1011 - 2,7
Fr, 03.02. 1:00 1019 - 2,1
Do, 02.02. 19:00 1022 + 1,7
Do, 02.02. 13:00 1018 + 2,6
Do, 02.02. 7:00 1013 + 2,7
Ortszeit Luftdruck NN (hPa) Tendenz (hPa in 3 Std.)
Sa, 04.02. 6:00 1033 + 3,9
Sa, 04.02. 5:40 1033 keine Meldung
Sa, 04.02. 5:30 1033 + 3,8
Sa, 04.02. 5:20 1033 keine Meldung
Sa, 04.02. 5:10 1032 keine Meldung
Sa, 04.02. 5:00 1032 + 3,9
Sa, 04.02. 4:50 1032 keine Meldung
Sa, 04.02. 4:30 1031 + 3,7
Sa, 04.02. 4:00 1031 + 4,1
Sa, 04.02. 3:30 1030 + 4,4
Sa, 04.02. 3:00 1030 + 4,8
Ortszeit Schneehöhe (cm)
Sa, 04.02. 1:00 0
Fr, 03.02. 19:00 0
Fr, 03.02. 13:00 0
Fr, 03.02. 7:00 0
Fr, 03.02. 1:00 0
Do, 02.02. 19:00 0
Do, 02.02. 13:00 0
Do, 02.02. 7:00 0
Ortszeit Schneehöhe (cm)
Sa, 04.02. 6:00 0
Sa, 04.02. 5:40 0
Sa, 04.02. 5:30 0
Sa, 04.02. 5:20 0
Sa, 04.02. 5:10 0
Sa, 04.02. 5:00 0
Sa, 04.02. 4:50 0
Sa, 04.02. 4:30 0
Sa, 04.02. 4:00 0
Sa, 04.02. 3:30 0
Sa, 04.02. 3:00 0
Link zu dieser Seite / Seite empfehlen

Das Wetter in ...